[[{"header":{"parameterUnit":"m.s-1","parameterCategory":1,"la1":30.2991,"la2":30.254,"lo1":-89.0895,"lo2":-89.0444,"dy":0.0017,"dx":0.0017,"nx":28,"ny":28,"refTime":"2025-12-04T03:00:00:Z","depth":0,"parameterNumber":2,"parameterNumberName":"U-component_of_WINDS"},"data":[0,0,0,0,0,0,0,0,0,0,0,0,0,0,0,0,0,0,0,0,0,0,0,0,0,0,0,0,0,0,0,0,0,0,0,0,0,0,0,0,0,0,0,0,0,0,0,0,0,0,0,0,0,0,0,0,0,0,-0.8881,-0.888,0,-0.8818,-0.8817,-0.8816,-0.8738,-0.8737,-0.8735,-0.8734,-0.8671,-0.8671,-0.867,0,0,0,0,0,0,0,0,0,0,0,0,0,-0.8935,-0.8935,-0.8881,-0.888,-0.8879,-0.8818,-0.8817,-0.8816,-0.8738,-0.8736,-0.8735,-0.8734,-0.8671,-0.8671,-0.867,0,0,0,0,0,0,0,0,0,0,0,0,0,-0.8896,-0.8935,-0.8881,-0.8833,-0.8828,-0.8818,-0.8817,-0.8816,-0.8738,-0.8736,-0.8735,-0.8733,-0.8672,-0.8671,-0.867,-0.8703,0,0,-0.8668,-0.8668,0,0,0,0,0,0,0,0,-0.8898,-0.8894,-0.8841,-0.8836,-0.883,-0.8784,-0.8813,-0.8778,-0.8739,-0.8772,-0.8734,-0.8732,-0.871,-0.8706,-0.8699,-0.87,-0.8697,-0.8668,-0.8667,-0.8667,-0.8667,0,0,0,0,0,0,0,-0.8901,-0.8896,-0.8856,-0.884,-0.8834,-0.8815,-0.8807,-0.8806,-0.8753,-0.8769,-0.8763,-0.8757,-0.8707,-0.87,-0.8697,-0.8696,-0.8668,-0.8667,-0.8667,-0.8666,-0.8722,-0.8724,0,0,0,0,0,0,-0.8911,-0.8899,-0.8858,-0.8854,-0.886,-0.8816,-0.8807,-0.8801,-0.8752,-0.8743,-0.8759,-0.8754,-0.8702,-0.8698,-0.8694,-0.873,-0.8667,-0.8666,-0.8666,-0.8721,-0.8723,-0.8725,0,0,0,0,0,0,-0.8912,-0.8908,-0.886,-0.8875,-0.8867,-0.8816,-0.881,-0.88,-0.8792,-0.8744,-0.8735,-0.876,-0.87,-0.8695,-0.8701,-0.8727,-0.8666,-0.8665,-0.8718,-0.8721,-0.8724,-0.8802,0,0,0,0,0,0,-0.8914,-0.8909,-0.892,-0.8876,-0.8867,-0.8868,-0.8812,-0.88,-0.8791,-0.8784,-0.8743,-0.8735,-0.8698,-0.8703,-0.8701,-0.8724,-0.8665,-0.8716,-0.872,-0.8723,-0.8797,-0.8807,-0.8816,0,0,0,0,0,-0.8916,-0.8945,-0.8921,-0.8917,-0.888,-0.887,-0.8865,-0.8821,-0.8794,-0.8805,-0.8774,-0.8736,-0.8724,-0.8704,-0.8701,-0.8725,-0.8714,-0.8719,-0.8723,-0.8792,-0.8805,-0.8815,0,0,0,0,0,0,-0.8994,-0.8938,-0.8911,-0.8926,-0.8903,-0.8857,-0.887,-0.8836,-0.8821,-0.8815,-0.8762,-0.8754,-0.8767,-0.8746,-0.8725,-0.8755,-0.8714,-0.8718,-0.8768,-0.8779,-0.8788,-0.8793,-0.8664,0,0,0,0,0,-0.9013,-0.9009,-0.896,-0.8978,-0.8968,-0.8921,-0.8915,-0.8883,-0.8858,-0.8848,-0.8818,-0.8795,-0.8786,-0.8781,-0.877,-0.8793,-0.8784,-0.8808,-0.8818,-0.8826,-0.883,-0.8841,-0.8852,-0.8739,-0.8739,-0.8739,0,0,-0.9052,-0.9021,-0.9021,-0.8993,-0.8971,-0.8969,-0.8913,-0.8913,-0.8911,-0.8848,-0.8852,-0.883,-0.8801,-0.8816,-0.8821,-0.8799,-0.8859,-0.8831,-0.8838,-0.8838,-0.8847,-0.8858,-0.8867,-0.8742,-0.8742,-0.8741,0,0,-0.9122,-0.9097,-0.911,-0.9089,-0.9058,-0.9026,-0.903,-0.8988,-0.897,-0.8974,-0.8927,-0.8924,-0.8909,-0.8891,-0.888,-0.8944,-0.8909,-0.8942,-0.8991,-0.9003,-0.9012,-0.902,-0.9044,-0.9053,-0.8946,-0.8946,-0.8946,0,-0.9174,-0.9168,-0.912,-0.9123,-0.9112,-0.9055,-0.9068,-0.9051,-0.9018,-0.9012,-0.8988,-0.8969,-0.8945,-0.8956,-0.8971,-0.8964,-0.8967,-0.8946,-0.9015,-0.9022,-0.9028,-0.905,-0.9059,-0.895,-0.895,-0.8949,-0.8949,0,-0.9235,-0.9231,-0.9245,-0.9214,-0.9205,-0.9213,-0.9167,-0.9164,-0.9133,-0.9105,-0.911,-0.908,-0.9062,-0.9062,-0.9032,-0.9069,-0.9056,-0.9024,-0.8982,-0.9044,-0.9064,-0.9072,-0.8956,-0.8955,-0.8954,-0.8953,0,0,-0.9351,-0.9294,-0.93,-0.9286,-0.9247,-0.9244,-0.925,-0.9232,-0.9231,-0.921,-0.9214,-0.9203,-0.9173,-0.9161,-0.9129,-0.9139,-0.9193,-0.9106,-0.9104,-0.9124,-0.9232,-0.9257,-0.9268,-0.9169,-0.9171,-0.9172,-0.9235,0,-0.9415,-0.942,-0.9378,-0.9396,-0.9393,-0.9338,-0.9343,-0.9321,-0.9295,-0.9289,-0.926,-0.9254,-0.9214,-0.9207,-0.9215,-0.9185,-0.9214,-0.918,-0.9174,-0.9174,-0.9183,-0.9278,-0.9304,-0.9365,-0.9242,-0.9244,-0.9245,0,-0.9489,-0.9472,-0.9489,-0.945,-0.9447,-0.9453,-0.9434,-0.9428,-0.9402,-0.9382,-0.9369,-0.9332,-0.9336,-0.9295,-0.93,-0.9278,-0.9273,-0.9258,-0.9259,-0.9258,-0.9214,-0.928,-0.9383,-0.9393,-0.9256,-0.9255,-0.9254,0,-0.9574,-0.9555,-0.9563,-0.9553,-0.9507,-0.9512,-0.9494,-0.9465,-0.9458,-0.9441,-0.9436,-0.942,-0.9412,-0.9401,-0.9362,-0.9336,-0.9372,-0.9328,-0.9357,-0.9358,-0.9367,-0.9367,-0.9472,-0.9363,-0.9363,-0.9363,-0.9362,0,-0.9649,-0.9662,-0.9601,-0.9606,-0.9619,-0.9571,-0.9586,-0.9562,-0.9537,-0.9537,-0.9489,-0.9491,-0.9438,-0.9434,-0.9403,-0.9412,-0.9409,-0.9394,-0.9386,-0.9398,-0.9401,-0.9395,-0.939,-0.9365,-0.9364,-0.9364,-0.9364,0,-0.9746,-0.9705,-0.9711,-0.9667,-0.9657,-0.9669,-0.9632,-0.9635,-0.9606,-0.9607,-0.9605,-0.9559,-0.9552,-0.9511,-0.9495,-0.9474,-0.9495,-0.9478,-0.9504,-0.9498,-0.953,-0.9528,-0.9636,-0.9648,-0.953,-0.9532,-0.9532,0,-0.9797,-0.9806,-0.9763,-0.976,-0.9743,-0.9738,-0.973,-0.9683,-0.9677,-0.9648,-0.9655,-0.9644,-0.9632,-0.9624,-0.959,-0.9577,-0.956,-0.9598,-0.9558,-0.9571,-0.9561,-0.9562,-0.9563,-0.9608,-0.9609,-0.961,-0.9611,0,-0.9892,-0.9872,-0.9862,-0.9845,-0.9837,-0.9822,-0.9804,-0.9804,-0.9752,-0.9748,-0.9739,-0.973,-0.9713,-0.9703,-0.9685,-0.9666,-0.9631,-0.9624,-0.963,-0.9644,-0.9659,-0.9653,-0.9529,-0.9622,-0.9621,-0.962,-0.962,-0.9619,-0.9968,-0.9974,-0.9945,-0.9936,-0.9917,-0.9902,-0.9903,-0.9874,-0.9866,-0.9848,-0.9821,-0.9817,-0.9791,-0.9763,-0.9747,-0.9744,-0.9723,-0.9732,-0.9734,-0.9738,-0.9745,-0.9659,-0.9741,-0.974,-0.974,-0.9739,-0.9739,0,-1.0062,-1.0041,-1.0033,-1.0009,-1.0002,-0.9968,-0.9947,-0.9943,-0.994,-0.9919,-0.9908,-0.99,-0.989,-0.9855,-0.9842,-0.9846,-0.983,-0.9845,-0.9844,-0.9841,-0.9763,-0.976,-0.9858,-0.9858,-0.9858,-0.9858,-0.9858,-0.9858,-1.011,-1.0118,-1.0094,-1.0093,-1.0071,-1.0067,-1.0058,-1.0043,-1.0026,-1.0018,-1.001,-0.9987,-0.9961,-0.9945,-0.9935,-0.9925,-0.9923,-0.9944,-0.9929,-0.9857,-0.9846,-0.9835,-0.9832,-0.9944,-0.9944,-1.0006,-1.0007,-1.0008]},{"header":{"parameterUnit":"m.s-1","parameterCategory":1,"la1":30.2991,"la2":30.254,"lo1":-89.0895,"lo2":-89.0444,"dy":0.0017,"dx":0.0017,"nx":28,"ny":28,"refTime":"2025-12-04T03:00:00:Z","depth":0,"parameterNumber":3,"parameterNumberName":"V-component_of_WINDS"},"data":[0,0,0,0,0,0,0,0,0,0,0,0,0,0,0,0,0,0,0,0,0,0,0,0,0,0,0,0,0,0,0,0,0,0,0,0,0,0,0,0,0,0,0,0,0,0,0,0,0,0,0,0,0,0,0,0,0,0,-0.4116,-0.4117,0,-0.415,-0.4151,-0.4151,-0.4134,-0.4133,-0.4132,-0.4131,-0.4168,-0.4169,-0.4171,0,0,0,0,0,0,0,0,0,0,0,0,0,-0.4038,-0.4039,-0.4116,-0.4117,-0.4117,-0.415,-0.4151,-0.4151,-0.4134,-0.4133,-0.4132,-0.4131,-0.4167,-0.4169,-0.4171,0,0,0,0,0,0,0,0,0,0,0,0,0,-0.4072,-0.404,-0.4116,-0.4113,-0.4113,-0.415,-0.4151,-0.4151,-0.4134,-0.4133,-0.4132,-0.413,-0.4166,-0.4169,-0.4172,-0.4215,0,0,-0.418,-0.4181,0,0,0,0,0,0,0,0,-0.407,-0.4075,-0.4113,-0.4113,-0.4113,-0.4136,-0.4136,-0.4173,-0.4135,-0.4126,-0.4131,-0.413,-0.4158,-0.4162,-0.4171,-0.4217,-0.4218,-0.418,-0.4182,-0.4183,-0.4184,0,0,0,0,0,0,0,-0.4068,-0.4073,-0.413,-0.4113,-0.4114,-0.411,-0.4113,-0.4143,-0.4149,-0.4127,-0.4126,-0.413,-0.4158,-0.4168,-0.4172,-0.4219,-0.418,-0.4182,-0.4184,-0.4185,-0.4302,-0.4303,0,0,0,0,0,0,-0.4065,-0.4071,-0.4129,-0.4131,-0.4088,-0.4112,-0.4116,-0.413,-0.4149,-0.4151,-0.4131,-0.4129,-0.4164,-0.4169,-0.4173,-0.4226,-0.4183,-0.4185,-0.4187,-0.4301,-0.4302,-0.4304,0,0,0,0,0,0,-0.4064,-0.4071,-0.4127,-0.4101,-0.4108,-0.4115,-0.4131,-0.4132,-0.4142,-0.4152,-0.4153,-0.414,-0.4164,-0.4169,-0.4205,-0.4227,-0.4187,-0.4189,-0.4299,-0.4301,-0.4303,-0.4331,0,0,0,0,0,0,-0.4061,-0.407,-0.4087,-0.4101,-0.4109,-0.4159,-0.4133,-0.4133,-0.4146,-0.4144,-0.4161,-0.4163,-0.4163,-0.4201,-0.4207,-0.423,-0.4191,-0.4297,-0.43,-0.4302,-0.4329,-0.4334,-0.4339,0,0,0,0,0,-0.4059,-0.4094,-0.4088,-0.4095,-0.413,-0.416,-0.4164,-0.4164,-0.4148,-0.4165,-0.4171,-0.4162,-0.4223,-0.4204,-0.4212,-0.4235,-0.4296,-0.4299,-0.4302,-0.4326,-0.4333,-0.4339,0,0,0,0,0,0,-0.4082,-0.4095,-0.4089,-0.413,-0.4144,-0.4157,-0.4178,-0.4171,-0.419,-0.4187,-0.4186,-0.419,-0.4227,-0.4234,-0.4214,-0.4278,-0.4257,-0.4262,-0.4273,-0.4279,-0.4284,-0.4283,-0.4193,0,0,0,0,0,-0.4092,-0.4115,-0.4125,-0.416,-0.4167,-0.4171,-0.4184,-0.4182,-0.4197,-0.4203,-0.4212,-0.4227,-0.4249,-0.4264,-0.4286,-0.4329,-0.4333,-0.4348,-0.4354,-0.4358,-0.4363,-0.4387,-0.4394,-0.4315,-0.4315,-0.4315,0,0,-0.4113,-0.4123,-0.4137,-0.4165,-0.4175,-0.4199,-0.4177,-0.4203,-0.4221,-0.4207,-0.4242,-0.4248,-0.4265,-0.4305,-0.4322,-0.4312,-0.4385,-0.4362,-0.4366,-0.4368,-0.4391,-0.4399,-0.4405,-0.4317,-0.4317,-0.4316,0,0,-0.4163,-0.4172,-0.4203,-0.4213,-0.423,-0.4232,-0.4239,-0.4253,-0.4257,-0.4291,-0.4281,-0.4302,-0.4341,-0.4353,-0.4365,-0.4418,-0.4411,-0.4425,-0.4454,-0.4477,-0.4483,-0.4489,-0.4509,-0.4516,-0.4429,-0.4429,-0.443,0,-0.4187,-0.4223,-0.4219,-0.4246,-0.4259,-0.4246,-0.4277,-0.4288,-0.431,-0.432,-0.4307,-0.4355,-0.4365,-0.4408,-0.4421,-0.443,-0.4438,-0.4424,-0.4482,-0.4488,-0.4493,-0.4513,-0.452,-0.4431,-0.4431,-0.4431,-0.4431,0,-0.4252,-0.4277,-0.4299,-0.432,-0.4335,-0.4364,-0.4365,-0.4381,-0.4377,-0.438,-0.4415,-0.4427,-0.445,-0.446,-0.4456,-0.4502,-0.4495,-0.4482,-0.4461,-0.4503,-0.4521,-0.4528,-0.4434,-0.4433,-0.4433,-0.4432,0,0,-0.432,-0.4338,-0.4347,-0.4356,-0.4372,-0.4392,-0.4419,-0.4442,-0.4455,-0.4471,-0.4495,-0.4527,-0.4515,-0.4528,-0.4526,-0.4546,-0.4589,-0.4531,-0.4531,-0.4543,-0.4641,-0.4651,-0.466,-0.4583,-0.4584,-0.4585,-0.464,0,-0.4373,-0.4422,-0.4419,-0.4465,-0.4488,-0.4476,-0.45,-0.4513,-0.4517,-0.4537,-0.4541,-0.4564,-0.4547,-0.4554,-0.4574,-0.4579,-0.4609,-0.4575,-0.4606,-0.4608,-0.4605,-0.4669,-0.468,-0.4731,-0.4647,-0.4648,-0.4649,0,-0.4441,-0.4459,-0.4507,-0.4519,-0.4529,-0.4551,-0.4571,-0.459,-0.4604,-0.4605,-0.4619,-0.4613,-0.4642,-0.4618,-0.4658,-0.4635,-0.4647,-0.4652,-0.4654,-0.4658,-0.4632,-0.4677,-0.4748,-0.4756,-0.4659,-0.4659,-0.4658,0,-0.4488,-0.4523,-0.4557,-0.4565,-0.458,-0.4596,-0.4603,-0.4615,-0.4629,-0.4646,-0.4655,-0.4675,-0.4687,-0.4703,-0.4703,-0.4685,-0.4743,-0.4719,-0.4746,-0.4746,-0.4761,-0.476,-0.4836,-0.4766,-0.4765,-0.4765,-0.4765,0,-0.4548,-0.4579,-0.4578,-0.4599,-0.4633,-0.4629,-0.4662,-0.4667,-0.4678,-0.47,-0.469,-0.4711,-0.4708,-0.4729,-0.4729,-0.4763,-0.4768,-0.477,-0.477,-0.4772,-0.4772,-0.4782,-0.4779,-0.4767,-0.4767,-0.4766,-0.4766,0,-0.4607,-0.4608,-0.4644,-0.4654,-0.4658,-0.4682,-0.4692,-0.4711,-0.4713,-0.4741,-0.4748,-0.4751,-0.4775,-0.4776,-0.4804,-0.4804,-0.4845,-0.484,-0.4841,-0.484,-0.4868,-0.4866,-0.4954,-0.4966,-0.4886,-0.4887,-0.4887,0,-0.4647,-0.467,-0.4683,-0.4696,-0.4704,-0.4726,-0.474,-0.4736,-0.4751,-0.4768,-0.4786,-0.4808,-0.4827,-0.4866,-0.4871,-0.4893,-0.4889,-0.4918,-0.4893,-0.4894,-0.4892,-0.4891,-0.4894,-0.4924,-0.4925,-0.4926,-0.4927,0,-0.4717,-0.4716,-0.4736,-0.4755,-0.4771,-0.4786,-0.4801,-0.4812,-0.481,-0.4827,-0.4851,-0.4865,-0.4893,-0.4916,-0.4937,-0.4944,-0.4936,-0.4934,-0.4942,-0.4945,-0.4945,-0.4947,-0.4856,-0.4933,-0.4932,-0.4932,-0.4931,-0.4931,-0.4769,-0.4789,-0.4801,-0.4823,-0.4833,-0.4846,-0.4865,-0.4869,-0.4889,-0.4912,-0.4908,-0.4935,-0.4948,-0.4974,-0.4983,-0.5004,-0.4994,-0.5005,-0.5008,-0.5011,-0.5015,-0.494,-0.5008,-0.5008,-0.5008,-0.5007,-0.5007,0,-0.484,-0.4847,-0.4867,-0.4887,-0.4904,-0.4893,-0.4907,-0.4923,-0.4947,-0.4959,-0.4977,-0.5005,-0.5027,-0.5033,-0.5055,-0.5071,-0.5068,-0.5077,-0.5077,-0.5079,-0.5022,-0.5014,-0.5079,-0.5079,-0.5079,-0.5079,-0.5079,-0.5079,-0.4879,-0.4913,-0.4913,-0.4951,-0.4958,-0.4984,-0.4994,-0.5006,-0.5015,-0.5047,-0.5065,-0.5069,-0.5079,-0.51,-0.512,-0.5122,-0.5131,-0.5142,-0.5142,-0.509,-0.5083,-0.5076,-0.5068,-0.5144,-0.5144,-0.5197,-0.5198,-0.5198]}]]